PA2JOK Weather Reports


time (UTC)temp
F
wind
direction
speed
knots
gust
knots
rain 1hr
in
rain 24hr
in
rain mn
in
humidity
%
barometer
mb
20260506013302 49 77 1.7 8.7 0.00 0.00 0.00 73 1008.6
20260506011803 49 61 1.7 8.7 0.00 0.00 0.00 74 1008.7
20260506010303 49 51 1.7 5.2 0.00 0.00 0.00 75 1008.8
20260506004803 49 33 1.7 7.0 0.00 0.00 0.00 75 1008.9
20260506003302 49 26 0.0 3.5 0.00 0.00 0.00 75 1009.0
20260506001802 49 105 0.0 5.2 0.00 0.00 0.00 75 1009.2
20260506000303 49 151 0.0 1.7 0.00 0.00 0.00 75 1009.3
20260505234803 49 39 1.7 8.7 0.00 0.00 0.00 74 1009.4
20260505233302 49 85 0.0 10.4 0.00 0.00 0.00 74 1009.4
20260505231803 49 152 1.7 8.7 0.00 0.00 0.00 73 1009.6
20260505230303 49 64 0.0 5.2 0.00 0.00 0.00 71 1009.5
20260505224803 49 23 1.7 5.2 0.00 0.00 0.00 71 1009.7
20260505223302 49 27 0.0 7.0 0.00 0.00 0.00 70 1009.8
20260505221803 49 116 1.7 5.2 0.00 0.00 0.00 70 1009.8
20260505220302 49 78 0.0 5.2 0.00 0.00 0.00 70 1010.0
20260505214803 49 169 1.7 3.5 0.00 0.00 0.00 71 1010.0
20260505213303 49 26 0.0 7.0 0.00 0.00 0.00 71 1010.1
20260505211802 50 32 5.2 7.0 0.00 0.00 0.00 71 1010.0
20260505210302 50 25 0.0 8.7 0.00 0.00 0.00 71 1010.0
20260505204803 50 23 3.5 7.0 0.00 0.00 0.00 71 1010.1
20260505203303 51 58 3.5 8.7 0.00 0.00 0.00 70 1010.1
20260505201803 51 101 1.7 8.7 0.00 0.00 0.00 69 1010.3
20260505200303 51 69 0.0 5.2 0.00 0.00 0.00 69 1010.1
20260505194802 51 54 0.0 7.0 0.00 0.00 0.00 69 1010.1
20260505193303 51 14 1.7 7.0 0.00 0.00 0.00 71 1009.9
20260505191802 52 35 1.7 8.7 0.00 0.00 0.00 70 1009.8
20260505190303 52 40 1.7 8.7 0.00 0.00 0.00 70 1009.6
20260505184802 53 347 1.7 10.4 0.00 0.00 0.00 69 1009.4
20260505183302 53 33 1.7 8.7 0.00 0.00 0.00 68 1009.5
20260505181803 53 3 3.5 12.2 0.00 0.00 0.00 67 1009.3
20260505180303 53 18 0.0 20.0 0.00 0.00 0.00 66 1009.3
20260505174802 54 53 5.2 12.2 0.00 0.00 0.00 66 1009.4
20260505173302 55 28 3.5 10.4 0.00 0.00 0.00 65 1009.2
20260505171802 55 1 3.5 12.2 0.00 0.00 0.00 64 1009.2
20260505170303 56 10 7.0 14.8 0.00 0.00 0.00 63 1009.2
20260505164802 56 38 1.7 12.2 0.00 0.00 0.00 63 1009.5
20260505163303 56 18 7.0 12.2 0.00 0.00 0.00 63 1009.4
20260505161803 56 29 1.7 8.7 0.00 0.00 0.00 63 1009.5
20260505160303 56 11 8.7 10.4 0.00 0.00 0.00 65 1009.6
20260505153302 55 91 1.7 7.0 0.00 0.00 0.00 68 1009.7
20260505151802 55 72 3.5 8.7 0.00 0.00 0.00 69 1009.9
20260505150303 54 92 1.7 8.7 0.00 0.00 0.00 70 1009.9
20260505140303 53 118 3.5 10.4 0.00 0.00 0.00 73 1010.2
20260505130303 51 81 7.0 12.2 0.00 0.00 0.00 78 1010.8
20260505124802 51 184 0.0 8.7 0.00 0.00 0.00 77 1011.0
20260505123303 51 132 0.0 7.0 0.00 0.00 0.00 78 1010.8
20260505121802 51 91 3.5 7.0 0.00 0.00 0.00 78 1010.9
20260505120303 51 134 0.0 8.7 0.00 0.00 0.00 79 1010.8
20260505114803 51 96 3.5 8.7 0.00 0.00 0.00 80 1011.0
20260505113303 51 78 0.0 8.7 0.00 0.00 0.00 80 1011.0
20260505111803 50 102 3.5 10.4 0.00 0.00 0.00 81 1010.9
20260505110303 50 129 1.7 8.7 0.00 0.00 0.00 80 1011.1
20260505101802 50 79 8.7 8.7 0.00 0.00 0.00 82 1011.3
20260505100302 50 96 1.7 8.7 0.00 0.00 0.00 83 1011.3
20260505094802 49 102 8.7 10.4 0.00 0.00 0.00 83 1011.4
20260505093303 49 123 1.7 7.0 0.00 0.00 0.00 84 1011.4
20260505091803 49 82 5.2 8.7 0.00 0.00 0.00 84 1011.5
20260505090302 49 108 1.7 8.7 0.00 0.00 0.00 85 1011.6
20260505084802 48 67 7.0 12.2 0.00 0.00 0.00 85 1011.4
20260505083303 48 78 3.5 10.4 0.00 0.00 0.00 85 1011.5
20260505081803 48 104 3.5 8.7 0.00 0.00 0.00 86 1011.4
20260505080302 48 102 7.0 8.7 0.00 0.00 0.00 86 1011.5
20260505074803 48 115 3.5 12.2 0.00 0.00 0.00 86 1011.5
20260505073303 48 71 3.5 10.4 0.00 0.00 0.00 87 1011.3
20260505071803 48 57 3.5 12.2 0.00 0.00 0.00 87 1011.4
20260505070302 48 74 5.2 10.4 0.00 0.00 0.00 88 1011.4
20260505064802 48 85 3.5 8.7 0.00 0.00 0.00 88 1011.5
20260505063303 48 185 1.7 8.7 0.00 0.00 0.00 89 1011.5
20260505061804 48 108 1.7 8.7 0.00 0.00 0.00 89 1011.6
20260505060302 48 98 3.5 8.7 0.00 0.00 0.00 89 1011.8
20260505054803 48 114 1.7 8.7 0.00 0.00 0.00 88 1011.8
20260505053302 48 58 5.2 7.0 0.00 0.00 0.00 88 1011.8
20260505051803 48 91 5.2 8.7 0.00 0.00 0.00 88 1011.6
20260505050303 48 140 0.0 8.7 0.00 0.00 0.00 87 1011.4
20260505040304 49 119 0.0 7.0 0.00 0.01 0.00 87 1011.3
20260505034803 50 116 0.0 7.0 0.00 0.01 0.00 86 1011.4
20260505033303 50 65 0.0 3.5 0.00 0.01 0.00 86 1011.4
20260505031802 50 157 0.0 5.2 0.00 0.01 0.00 86 1011.4
20260505030303 50 8 0.0 8.7 0.00 0.01 0.00 85 1011.4
20260505024802 50 7 3.5 7.0 0.00 0.01 0.00 85 1011.4
20260505023303 50 40 0.0 5.2 0.00 0.01 0.00 85 1011.5
20260505021802 51 93 0.0 8.7 0.00 0.01 0.00 85 1011.5
20260505020302 51 177 0.0 5.2 0.00 0.01 0.00 84 1011.5
20260505014803 51 31 1.7 13.9 0.00 0.01 0.00 84 1011.5